Flag for Namibia Weather past 2 weeks in Walvis Bay, Namibia

Now
52 °F

Clear.


Feels Like: 52 °F
Forecast: 56 / 77 °F
Wind: 1 mph from West

Location: Walvis Bay

Current Time: Aug 5, 2015 at 5:55:31 AM

Latest Report: Aug 5, 2015 at 5:00 AM


Visibility: 10 mi

Pressure: 30.04 "Hg

Humidity: 62%

Dew point: 39 °F

Location of Walvis BayLocation

Historic Weather in Walvis Bay — Graph

°F

Walvis Bay temperature yesterday

Maximum temperature yesterday: 77 °F (at 2:00 PM)
Minimum temperature yesterday: 45 °F (at 6:00 AM)
Average temperature yesterday: 58 °F

Past Weeks' High & Low Weather Summary

 TemperatureHumidityPressure
High93 °F (Aug 1, 12:00 PM)100% (Jul 27, 7:00 AM)30.27 "Hg (Jul 27, 7:00 AM)
Low37 °F (Jul 30, 5:00 AM)10% (Jul 26, 1:00 PM)29.98 "Hg (Jul 26, 4:00 PM)
Average58 °F70%30.12 "Hg
* Reported Jul 21 7:00 AM — Aug 5 4:00 AM, Walvis Bay, Weather by CustomWeather, © 2015

Note: Actual official high and low records may vary slightly from our data, if they occured in-between our weather recording intervals... More about our weather records

Advertising

Walvis Bay weather history for previous 24 hours

 ConditionsComfort  
Time TempWeatherWind HumidityBarometerVisibility
4:00 AM
Wed, Aug 5
52 °FCool.3 mph72%30.04 "HgN/A
3:00 AM54 °FCool.2 mph67%30.04 "HgN/A
2:00 AM52 °FCool.3 mph77%30.07 "HgN/A
1:00 AM52 °FCool.2 mph88%30.07 "HgN/A
12:00 AM54 °FCool.5 mph82%30.09 "HgN/A
11:00 PM
Tue, Aug 4
54 °FCool.6 mph82%30.09 "HgN/A
10:00 PM55 °FCool.6 mph77%30.09 "HgN/A
9:00 PM57 °FCool.6 mph77%30.09 "HgN/A
8:00 PM57 °FCool.6 mph77%30.09 "HgN/A
7:00 PM64 °FClear.6 mph60%30.07 "Hg10 mi
5:00 PM68 °FMild.13 mph60%30.07 "HgN/A
4:00 PM72 °FMild.17 mph53%30.07 "HgN/A
3:00 PM75 °FMild.15 mph44%30.07 "HgN/A
2:00 PM77 °FPleasantly warm.12 mph39%30.09 "HgN/A
1:00 PM73 °FSunny.8 mph57%30.12 "Hg10 mi
12:00 PM72 °FSunny.5 mph38%30.15 "Hg10 mi
11:00 AM63 °FSunny.5 mph64%30.15 "Hg10 mi
10:00 AM55 °FSunny.No wind100%30.18 "Hg10 mi
9:00 AM50 °FScattered clouds.3 mph100%30.18 "HgN/A
8:00 AM52 °FOvercast.No wind94%30.15 "HgN/A
7:00 AM45 °FLow clouds.5 mph100%30.15 "HgN/A
6:00 AM45 °FSunny.6 mph100%30.12 "Hg10 mi
5:00 AM48 °FFog.3 mph94%30.12 "Hg0 mi
Weather by CustomWeather, © 2015

See weather overviewHow to use our weather pages